OCN7YZ EDDF-LGIR

Flight info

Callsign OCN7YZ
Flight time N/A
Altitude 37000
Route CINDY3L CINDY Z74 LAMPU DCT NOMBO Y161 MAH DCT LATLO DCT OBEDI DCT TEBLI DCT TIVNU DCT RETRA DCT PINDO DCT PIKOS DCT KEA UL607 GIVIS/N0419F230 T514 XAVIS XAVIS1A
Aircraft A320/M-SDE3FGHIRWY/LB1

Departure

Time 2026-04-16 14:24
Airport Frankfurt Main Airport (EDDF)

Arrival

Time N/A
Airport Heraklion International Nikos Kazantzakis Airport (LGIR)
Time Latitude Longitude Altitude Speed Heading
2026-04-16 14:03 50.04750 8.57128 364 ft 0 kts 120°
2026-04-16 14:13 50.04755 8.57115 356 ft 3 kts 120°
2026-04-16 14:14 50.04765 8.57088 364 ft 2 kts 120°
2026-04-16 14:14 50.04774 8.57064 356 ft 3 kts 133°
2026-04-16 14:14 50.04789 8.57046 360 ft 3 kts 168°
2026-04-16 14:14 50.04808 8.57046 359 ft 3 kts 199°
2026-04-16 14:15 50.04821 8.57054 359 ft 1 kts 205°
2026-04-16 14:15 50.04825 8.57056 361 ft 1 kts 205°
2026-04-16 14:17 50.04819 8.57052 358 ft 5 kts 204°
2026-04-16 14:17 50.04786 8.57030 359 ft 5 kts 203°
2026-04-16 14:17 50.04738 8.56996 359 ft 17 kts 205°
2026-04-16 14:18 50.04632 8.56921 359 ft 15 kts 202°
2026-04-16 14:18 50.04542 8.56886 359 ft 11 kts 194°
2026-04-16 14:18 50.04465 8.56847 362 ft 11 kts 215°
2026-04-16 14:18 50.04434 8.56749 363 ft 10 kts 249°
2026-04-16 14:19 50.04392 8.56579 358 ft 22 kts 250°
2026-04-16 14:19 50.04341 8.56359 356 ft 21 kts 250°
2026-04-16 14:19 50.04284 8.56117 354 ft 26 kts 249°
2026-04-16 14:19 50.04221 8.55859 360 ft 25 kts 249°
2026-04-16 14:20 50.04161 8.55616 358 ft 23 kts 250°
2026-04-16 14:20 50.04106 8.55389 359 ft 21 kts 250°
2026-04-16 14:20 50.04060 8.55186 359 ft 19 kts 250°
2026-04-16 14:20 50.04017 8.55005 359 ft 17 kts 249°
2026-04-16 14:21 50.03975 8.54837 357 ft 17 kts 251°
2026-04-16 14:21 50.03935 8.54669 358 ft 17 kts 250°
2026-04-16 14:21 50.03878 8.54424 354 ft 29 kts 249°
2026-04-16 14:21 50.03782 8.54150 352 ft 29 kts 247°
2026-04-16 14:22 50.03715 8.53867 351 ft 26 kts 249°
2026-04-16 14:22 50.03653 8.53614 343 ft 24 kts 246°
2026-04-16 14:22 50.03597 8.53381 339 ft 22 kts 251°
2026-04-16 14:22 50.03547 8.53170 334 ft 20 kts 249°
2026-04-16 14:23 50.03497 8.52967 336 ft 24 kts 248°
2026-04-16 14:23 50.03433 8.52721 331 ft 25 kts 248°
2026-04-16 14:23 50.03351 8.52588 335 ft 17 kts 181°
2026-04-16 14:23 50.03093 8.52591 335 ft 70 kts 179°
2026-04-16 14:24 50.02392 8.52600 332 ft 128 kts 180°
2026-04-16 14:24 50.01353 8.52611 359 ft 168 kts 179°
2026-04-16 14:24 50.00172 8.52660 918 ft 174 kts 179°
2026-04-16 14:24 49.98948 8.52709 1705 ft 177 kts 180°
2026-04-16 14:25 49.97693 8.52749 2395 ft 188 kts 180°
2026-04-16 14:25 49.96320 8.52821 2884 ft 207 kts 180°
2026-04-16 14:25 49.94793 8.52878 3319 ft 231 kts 180°
2026-04-16 14:25 49.93166 8.52940 4142 ft 231 kts 179°
2026-04-16 14:26 49.91565 8.53062 4996 ft 233 kts 178°
2026-04-16 14:26 49.89921 8.53231 5710 ft 240 kts 178°
2026-04-16 14:26 49.88270 8.53406 6581 ft 240 kts 178°
2026-04-16 14:26 49.86595 8.53583 7349 ft 243 kts 179°
2026-04-16 14:27 49.84899 8.53731 8160 ft 244 kts 179°
2026-04-16 14:27 49.83194 8.53841 8932 ft 247 kts 180°
2026-04-16 14:27 49.82045 8.53911 9405 ft 250 kts 179°
2026-04-16 14:27 49.80318 8.54287 10169 ft 256 kts 161°
2026-04-16 14:28 49.78825 8.55819 10811 ft 264 kts 133°
2026-04-16 14:28 49.77942 8.58406 11126 ft 287 kts 101°
2026-04-16 14:28 49.77751 8.61605 11350 ft 310 kts 92°
2026-04-16 14:28 49.77663 8.65064 11553 ft 334 kts 91°
2026-04-16 14:29 49.77590 8.68783 11715 ft 357 kts 91°
2026-04-16 14:29 49.77505 8.72727 11946 ft 375 kts 91°
2026-04-16 14:29 49.77398 8.76803 12490 ft 383 kts 92°
2026-04-16 14:29 49.77270 8.80953 13119 ft 389 kts 92°
2026-04-16 14:30 49.77124 8.85155 13760 ft 394 kts 92°
2026-04-16 14:30 49.76967 8.89410 14333 ft 399 kts 92°
2026-04-16 14:30 49.76807 8.93711 14909 ft 403 kts 92°
2026-04-16 14:30 49.76642 8.98059 15472 ft 406 kts 92°
2026-04-16 14:31 49.76472 9.02449 16034 ft 410 kts 92°
2026-04-16 14:31 49.76296 9.06865 16592 ft 414 kts 93°
2026-04-16 14:31 49.75880 9.11232 17103 ft 418 kts 103°
2026-04-16 14:31 49.75036 9.15556 17632 ft 421 kts 112°
2026-04-16 14:32 49.73758 9.19658 18140 ft 424 kts 122°
2026-04-16 14:32 49.72059 9.23388 18650 ft 426 kts 132°
2026-04-16 14:32 49.70110 9.26853 19106 ft 429 kts 133°
2026-04-16 14:32 49.68135 9.30343 19560 ft 432 kts 133°
2026-04-16 14:33 49.66148 9.33846 20007 ft 436 kts 133°
2026-04-16 14:33 49.64142 9.37376 20437 ft 439 kts 133°
2026-04-16 14:33 49.61997 9.40735 20848 ft 440 kts 141°
2026-04-16 14:33 49.59541 9.43546 21261 ft 440 kts 151°
2026-04-16 14:34 49.56900 9.45957 21672 ft 443 kts 152°
2026-04-16 14:34 49.54238 9.48378 22087 ft 446 kts 152°
2026-04-16 14:34 49.51560 9.50824 22497 ft 449 kts 152°
2026-04-16 14:34 49.48868 9.53290 22906 ft 452 kts 152°
2026-04-16 14:35 49.46159 9.55767 23321 ft 455 kts 152°
2026-04-16 14:35 49.43425 9.58261 23695 ft 458 kts 152°
2026-04-16 14:35 49.40676 9.60760 24030 ft 461 kts 153°
2026-04-16 14:35 49.37914 9.63262 24349 ft 463 kts 153°
2026-04-16 14:36 49.35190 9.65809 24674 ft 467 kts 148°
2026-04-16 14:36 49.32635 9.68918 25015 ft 472 kts 139°
2026-04-16 14:36 49.30300 9.72475 25332 ft 475 kts 137°
2026-04-16 14:36 49.27964 9.76067 25664 ft 477 kts 137°
2026-04-16 14:37 49.25612 9.79663 25983 ft 479 kts 137°
2026-04-16 14:37 49.23242 9.83267 26300 ft 481 kts 137°
2026-04-16 14:37 49.20862 9.86876 26601 ft 483 kts 137°
2026-04-16 14:37 49.18473 9.90491 26894 ft 485 kts 137°
2026-04-16 14:38 49.16068 9.94125 27195 ft 487 kts 137°
2026-04-16 14:38 49.13655 9.97768 27472 ft 489 kts 137°
2026-04-16 14:38 49.11229 10.01434 27752 ft 490 kts 137°
2026-04-16 14:38 49.08803 10.05100 28027 ft 492 kts 137°
2026-04-16 14:39 49.06362 10.08785 28303 ft 494 kts 137°
2026-04-16 14:39 49.03904 10.12425 28689 ft 493 kts 138°
2026-04-16 14:39 49.01406 10.16006 29097 ft 491 kts 139°
2026-04-16 14:39 48.98891 10.19528 29501 ft 490 kts 140°
2026-04-16 14:40 48.96371 10.23020 29895 ft 489 kts 140°
2026-04-16 14:40 48.93893 10.26454 30286 ft 489 kts 140°
2026-04-16 14:40 48.91387 10.29949 30621 ft 488 kts 139°
2026-04-16 14:40 48.88896 10.33445 30942 ft 488 kts 139°
2026-04-16 14:41 48.86402 10.36958 31240 ft 488 kts 139°
2026-04-16 14:41 48.83914 10.40469 31545 ft 488 kts 139°
2026-04-16 14:41 48.81456 10.44019 31838 ft 488 kts 137°
2026-04-16 14:41 48.79069 10.47695 32120 ft 489 kts 135°
2026-04-16 14:42 48.76743 10.51452 32435 ft 489 kts 134°
2026-04-16 14:42 48.74442 10.55261 32735 ft 489 kts 133°
2026-04-16 14:42 48.72151 10.59064 33039 ft 488 kts 134°
2026-04-16 14:42 48.69847 10.62843 33341 ft 488 kts 134°
2026-04-16 14:43 48.67557 10.66534 33641 ft 488 kts 134°
2026-04-16 14:43 48.65219 10.70252 33939 ft 487 kts 135°
2026-04-16 14:43 48.62876 10.73940 34240 ft 487 kts 135°
2026-04-16 14:43 48.60526 10.77627 34516 ft 486 kts 135°
2026-04-16 14:44 48.58185 10.81306 34793 ft 486 kts 135°
2026-04-16 14:44 48.55855 10.84995 35046 ft 485 kts 134°
2026-04-16 14:44 48.53540 10.88693 35310 ft 484 kts 134°
2026-04-16 14:44 48.51226 10.92408 35569 ft 484 kts 134°
2026-04-16 14:45 48.49692 10.94875 35729 ft 484 kts 134°
2026-04-16 14:45 48.47381 10.98569 35965 ft 483 kts 134°
2026-04-16 14:45 48.44302 11.03412 36267 ft 483 kts 135°
2026-04-16 14:45 48.42722 11.05870 36411 ft 482 kts 135°
2026-04-16 14:46 48.40388 11.09481 36632 ft 482 kts 135°
2026-04-16 14:46 48.38075 11.13050 36843 ft 481 kts 135°
2026-04-16 14:46 48.35737 11.16661 37054 ft 481 kts 135°
2026-04-16 14:46 48.33407 11.20267 37216 ft 481 kts 135°
2026-04-16 14:47 48.28725 11.27509 37243 ft 483 kts 135°
2026-04-16 14:47 48.24694 11.35515 37246 ft 483 kts 119°
2026-04-16 14:48 48.21389 11.44308 37246 ft 483 kts 119°
2026-04-16 14:48 48.18079 11.53049 37248 ft 482 kts 120°
2026-04-16 14:49 48.14750 11.61773 37259 ft 482 kts 120°
2026-04-16 14:49 48.11418 11.70470 37257 ft 482 kts 120°
2026-04-16 14:50 48.08105 11.79125 37256 ft 482 kts 120°
2026-04-16 14:50 48.04774 11.87809 37256 ft 481 kts 120°
2026-04-16 14:51 48.01437 11.96469 37260 ft 480 kts 120°
2026-04-16 14:51 47.98095 12.05094 37260 ft 479 kts 120°
2026-04-16 14:53 47.84950 12.38793 37255 ft 477 kts 121°
2026-04-16 14:54 47.81599 12.47308 37251 ft 476 kts 121°
2026-04-16 14:54 47.78249 12.55816 37253 ft 476 kts 121°
2026-04-16 14:55 47.74893 12.64312 37250 ft 476 kts 121°
2026-04-16 14:55 47.71524 12.72775 37252 ft 476 kts 121°
2026-04-16 14:56 47.67988 12.80984 37246 ft 474 kts 130°
2026-04-16 14:56 47.63439 12.88033 37238 ft 472 kts 137°
2026-04-16 14:57 47.58783 12.94892 37241 ft 472 kts 137°
2026-04-16 14:57 47.54116 13.01750 37236 ft 472 kts 137°
2026-04-16 14:58 47.47129 13.12006 37239 ft 472 kts 137°
2026-04-16 14:59 47.44652 13.15641 37238 ft 471 kts 137°
2026-04-16 14:59 47.44646 13.15650 37232 ft 471 kts 137°